| time (UTC) | temp F | wind direction | speed knots | gust knots | rain 1hr in | rain 24hr in | rain mn in | humidity % | barometer mb |
| 20260507101324 | 65 | 345 | 1.7 | 9.6 | 0.00 | 0.03 | 0.00 | 86 | 1014.4 |
| 20260507100332 | 65 | 340 | 2.6 | 7.8 | 0.00 | 0.03 | 0.00 | 86 | 1014.4 |
| 20260507095340 | 65 | 357 | 2.6 | 7.8 | 0.00 | 0.03 | 0.00 | 86 | 1014.1 |
| 20260507094327 | 65 | 9 | 1.7 | 8.7 | 0.00 | 0.03 | 0.00 | 86 | 1014.1 |
| 20260507093350 | 65 | 327 | 2.6 | 7.0 | 0.00 | 0.03 | 0.00 | 86 | 1013.9 |
| 20260507092340 | 65 | 340 | 1.7 | 5.2 | 0.00 | 0.03 | 0.00 | 86 | 1014.0 |
| 20260507091326 | 65 | 336 | 1.7 | 8.7 | 0.00 | 0.03 | 0.00 | 85 | 1013.9 |
| 20260507090329 | 65 | 8 | 0.9 | 4.3 | 0.00 | 0.03 | 0.00 | 85 | 1013.7 |
| 20260507085334 | 65 | 11 | 1.7 | 7.0 | 0.00 | 0.03 | 0.00 | 85 | 1013.6 |
| 20260507084338 | 65 | 12 | 1.7 | 7.0 | 0.00 | 0.03 | 0.00 | 85 | 1013.7 |
| 20260507083345 | 65 | 21 | 2.6 | 7.8 | 0.00 | 0.03 | 0.00 | 85 | 1013.7 |
| 20260507082330 | 65 | 10 | 3.5 | 7.8 | 0.00 | 0.03 | 0.00 | 85 | 1013.7 |
| 20260507081359 | 65 | 25 | 2.6 | 7.8 | 0.00 | 0.03 | 0.00 | 85 | 1013.9 |
| 20260507080325 | 65 | 38 | 2.6 | 10.4 | 0.00 | 0.03 | 0.00 | 84 | 1013.8 |
| 20260507075331 | 65 | 350 | 2.6 | 7.8 | 0.00 | 0.03 | 0.00 | 84 | 1013.8 |
| 20260507074337 | 65 | 340 | 1.7 | 12.2 | 0.00 | 0.03 | 0.00 | 83 | 1013.9 |
| 20260507073339 | 65 | 350 | 3.5 | 11.3 | 0.00 | 0.03 | 0.00 | 83 | 1013.9 |
| 20260507072326 | 66 | 356 | 3.5 | 10.4 | 0.00 | 0.03 | 0.00 | 83 | 1013.9 |
| 20260507071332 | 66 | 12 | 3.5 | 10.4 | 0.00 | 0.03 | 0.00 | 83 | 1014.3 |
| 20260507070338 | 66 | 11 | 2.6 | 10.4 | 0.00 | 0.03 | 0.00 | 83 | 1014.2 |
| 20260507065327 | 66 | 24 | 3.5 | 10.4 | 0.00 | 0.03 | 0.00 | 83 | 1014.2 |
| 20260507064332 | 66 | 319 | 3.5 | 14.8 | 0.00 | 0.03 | 0.00 | 83 | 1014.3 |
| 20260507063333 | 66 | 12 | 6.1 | 13.9 | 0.00 | 0.03 | 0.00 | 83 | 1014.4 |
| 20260507062340 | 66 | 2 | 4.3 | 13.0 | 0.00 | 0.03 | 0.00 | 83 | 1014.3 |
| 20260507061326 | 66 | 327 | 2.6 | 12.2 | 0.00 | 0.03 | 0.00 | 83 | 1014.5 |
| 20260507060330 | 66 | 2 | 2.6 | 8.7 | 0.00 | 0.03 | 0.00 | 83 | 1014.2 |
| 20260507055357 | 66 | 304 | 3.5 | 12.2 | 0.00 | 0.03 | 0.00 | 83 | 1014.3 |
| 20260507054402 | 66 | 301 | 3.5 | 9.6 | 0.00 | 0.03 | 0.00 | 83 | 1013.9 |
| 20260507053325 | 67 | 29 | 2.6 | 11.3 | 0.00 | 0.03 | 0.00 | 82 | 1013.7 |
| 20260507052334 | 67 | 2 | 5.2 | 13.0 | 0.00 | 0.03 | 0.00 | 82 | 1013.9 |
| 20260507051343 | 67 | 281 | 5.2 | 11.3 | 0.00 | 0.03 | 0.00 | 82 | 1013.7 |
| 20260507050328 | 67 | 350 | 3.5 | 13.0 | 0.00 | 0.03 | 0.00 | 82 | 1013.8 |
| 20260507045337 | 67 | 309 | 3.5 | 8.7 | 0.00 | 0.03 | 0.03 | 82 | 1014.0 |
| 20260507044342 | 67 | 22 | 3.5 | 12.2 | 0.00 | 0.03 | 0.03 | 82 | 1013.7 |
| 20260507043348 | 67 | 360 | 5.2 | 13.0 | 0.00 | 0.03 | 0.03 | 81 | 1013.8 |
| 20260507042334 | 67 | 345 | 4.3 | 13.0 | 0.00 | 0.03 | 0.03 | 81 | 1013.8 |
| 20260507041324 | 68 | 17 | 3.5 | 12.2 | 0.00 | 0.03 | 0.03 | 81 | 1013.8 |
| 20260507040348 | 68 | 335 | 3.5 | 13.9 | 0.00 | 0.03 | 0.03 | 81 | 1013.5 |
| 20260507035354 | 68 | 354 | 4.3 | 13.9 | 0.00 | 0.03 | 0.03 | 81 | 1013.5 |
| 20260507034342 | 69 | 321 | 4.3 | 8.7 | 0.00 | 0.03 | 0.03 | 81 | 1013.4 |
| 20260507033328 | 69 | 345 | 3.5 | 11.3 | 0.00 | 0.03 | 0.03 | 80 | 1013.4 |
| 20260507032335 | 69 | 345 | 5.2 | 10.4 | 0.00 | 0.03 | 0.03 | 80 | 1013.6 |
| 20260507031344 | 69 | 301 | 4.3 | 10.4 | 0.00 | 0.03 | 0.03 | 80 | 1013.3 |
| 20260507030332 | 70 | 1 | 3.5 | 13.9 | 0.00 | 0.03 | 0.03 | 79 | 1013.0 |
| 20260507025324 | 70 | 340 | 4.3 | 12.2 | 0.00 | 0.03 | 0.03 | 80 | 1012.9 |
| 20260507024332 | 70 | 333 | 5.2 | 11.3 | 0.00 | 0.03 | 0.03 | 80 | 1012.8 |
| 20260507023338 | 70 | 3 | 3.5 | 10.4 | 0.00 | 0.03 | 0.03 | 80 | 1012.4 |
| 20260507022326 | 70 | 335 | 2.6 | 8.7 | 0.00 | 0.03 | 0.03 | 81 | 1012.3 |
| 20260507021334 | 70 | 345 | 5.2 | 11.3 | 0.00 | 0.03 | 0.03 | 81 | 1011.9 |
| 20260507020340 | 70 | 356 | 2.6 | 7.8 | 0.00 | 0.03 | 0.03 | 81 | 1011.7 |
| 20260507015329 | 70 | 335 | 2.6 | 7.8 | 0.00 | 0.03 | 0.03 | 80 | 1011.5 |
| 20260507014402 | 71 | 323 | 2.6 | 7.0 | 0.00 | 0.03 | 0.03 | 80 | 1011.3 |
| 20260507013327 | 71 | 328 | 3.5 | 9.6 | 0.00 | 0.03 | 0.03 | 79 | 1011.3 |
| 20260507012334 | 71 | 292 | 4.3 | 10.4 | 0.00 | 0.03 | 0.03 | 79 | 1011.0 |
| 20260507011339 | 71 | 360 | 3.5 | 11.3 | 0.00 | 0.03 | 0.03 | 79 | 1010.8 |
| 20260507010323 | 72 | 323 | 3.5 | 8.7 | 0.00 | 0.03 | 0.03 | 79 | 1010.8 |
| 20260507005331 | 72 | 316 | 4.3 | 10.4 | 0.00 | 0.03 | 0.03 | 79 | 1010.5 |
| 20260507004337 | 72 | 323 | 5.2 | 12.2 | 0.00 | 0.03 | 0.03 | 79 | 1010.3 |
| 20260507003325 | 72 | 345 | 3.5 | 12.2 | 0.00 | 0.03 | 0.03 | 79 | 1010.3 |
| 20260507002332 | 73 | 318 | 4.3 | 15.6 | 0.00 | 0.03 | 0.03 | 79 | 1010.2 |
| 20260507001339 | 73 | 287 | 5.2 | 11.3 | 0.00 | 0.03 | 0.03 | 79 | 1010.0 |
| 20260507000324 | 73 | 350 | 4.3 | 11.3 | 0.00 | 0.03 | 0.03 | 79 | 1009.9 |
| 20260506235333 | 73 | 333 | 5.2 | 12.2 | 0.00 | 0.03 | 0.03 | 78 | 1009.8 |
| 20260506234359 | 73 | 300 | 4.3 | 13.9 | 0.00 | 0.03 | 0.03 | 78 | 1009.8 |
| 20260506233324 | 74 | 304 | 6.1 | 13.9 | 0.00 | 0.03 | 0.03 | 78 | 1009.5 |
| 20260506232333 | 76 | 289 | 6.1 | 14.8 | 0.00 | 0.03 | 0.03 | 78 | 1009.5 |
| 20260506231340 | 80 | 279 | 7.0 | 13.9 | 0.00 | 0.03 | 0.03 | 74 | 1009.3 |
| 20260506230325 | 84 | 288 | 2.6 | 5.2 | 0.00 | 0.03 | 0.03 | 83 | 1008.7 |
| 20260506225330 | 84 | 330 | 3.5 | 8.7 | 0.00 | 0.03 | 0.03 | 82 | 1008.7 |
| 20260506224336 | 85 | 350 | 1.7 | 4.3 | 0.00 | 0.03 | 0.03 | 83 | 1008.6 |
| 20260506223340 | 85 | 354 | 1.7 | 2.6 | 0.00 | 0.03 | 0.03 | 83 | 1008.7 |
| 20260506222327 | 84 | 11 | 0.9 | 2.6 | 0.00 | 0.03 | 0.03 | 83 | 1008.7 |
| 20260506221337 | 85 | 340 | 0.0 | 0.9 | 0.00 | 0.03 | 0.03 | 83 | 1008.6 |
| 20260506220342 | 85 | 350 | 1.7 | 2.6 | 0.00 | 0.03 | 0.03 | 82 | 1008.6 |
| 20260506215332 | 85 | 340 | 0.0 | 2.6 | 0.00 | 0.03 | 0.03 | 82 | 1008.6 |
| 20260506214341 | 85 | 290 | 0.0 | 0.0 | 0.00 | 0.03 | 0.03 | 80 | 1008.5 |
| 20260506213346 | 84 | 350 | 0.0 | 0.0 | 0.00 | 0.03 | 0.03 | 80 | 1008.4 |
| 20260506212330 | 84 | 350 | 0.0 | 0.0 | 0.00 | 0.03 | 0.03 | 81 | 1008.5 |
| 20260506211337 | 84 | 300 | 0.0 | 0.0 | 0.00 | 0.03 | 0.03 | 82 | 1008.6 |
| 20260506210326 | 84 | 288 | 0.0 | 0.0 | 0.00 | 0.03 | 0.03 | 83 | 1008.7 |
| 20260506205332 | 84 | 156 | 0.0 | 0.0 | 0.00 | 0.03 | 0.03 | 82 | 1008.6 |
| 20260506204338 | 84 | 202 | 0.0 | 0.0 | 0.00 | 0.03 | 0.03 | 82 | 1008.7 |
| 20260506203342 | 84 | 308 | 0.0 | 2.6 | 0.00 | 0.03 | 0.03 | 82 | 1008.9 |
| 20260506202330 | 84 | 200 | 0.9 | 3.5 | 0.00 | 0.03 | 0.03 | 80 | 1008.8 |
| 20260506201338 | 84 | 202 | 0.0 | 1.7 | 0.00 | 0.03 | 0.03 | 81 | 1009.1 |
| 20260506200341 | 83 | 125 | 2.6 | 3.5 | 0.00 | 0.03 | 0.03 | 81 | 1009.2 |
| 20260506195328 | 83 | 127 | 1.7 | 4.3 | 0.00 | 0.03 | 0.03 | 81 | 1009.1 |
| 20260506194339 | 84 | 122 | 0.0 | 3.5 | 0.00 | 0.03 | 0.03 | 80 | 1009.2 |
| 20260506193342 | 84 | 125 | 0.9 | 3.5 | 0.00 | 0.03 | 0.03 | 82 | 1009.2 |
| 20260506192330 | 84 | 108 | 0.9 | 3.5 | 0.01 | 0.03 | 0.03 | 82 | 1009.4 |
| 20260506191339 | 83 | 131 | 3.5 | 4.3 | 0.01 | 0.03 | 0.03 | 83 | 1009.5 |
| 20260506190341 | 84 | 129 | 0.9 | 4.3 | 0.01 | 0.03 | 0.03 | 82 | 1009.6 |
| 20260506185349 | 83 | 82 | 1.7 | 2.6 | 0.01 | 0.03 | 0.03 | 84 | 1009.6 |
| 20260506184336 | 82 | 34 | 0.0 | 0.9 | 0.01 | 0.03 | 0.03 | 85 | 1009.8 |
| 20260506183345 | 82 | 107 | 0.9 | 3.5 | 0.02 | 0.03 | 0.03 | 85 | 1009.8 |
| 20260506182351 | 81 | 130 | 0.0 | 2.6 | 0.01 | 0.02 | 0.02 | 86 | 1010.0 |
| 20260506181336 | 81 | 117 | 1.7 | 3.5 | 0.01 | 0.02 | 0.02 | 87 | 1010.1 |
| 20260506180338 | 80 | 135 | 0.0 | 2.6 | 0.01 | 0.02 | 0.02 | 89 | 1010.3 |
| 20260506175325 | 80 | 123 | 0.0 | 1.7 | 0.01 | 0.02 | 0.02 | 90 | 1010.5 |
| 20260506174352 | 79 | 188 | 0.9 | 2.6 | 0.01 | 0.02 | 0.02 | 89 | 1010.8 |
| 20260506173336 | 80 | 110 | 0.9 | 2.6 | 0.00 | 0.01 | 0.01 | 88 | 1010.9 |
| 20260506172324 | 80 | 23 | 0.0 | 0.9 | 0.01 | 0.01 | 0.01 | 90 | 1011.0 |
| 20260506171355 | 80 | 4 | 0.0 | 0.9 | 0.01 | 0.01 | 0.01 | 90 | 1011.2 |
| 20260506170400 | 80 | 4 | 0.0 | 0.9 | 0.01 | 0.01 | 0.01 | 90 | 1011.2 |
| 20260506165328 | 79 | 128 | 0.0 | 0.0 | 0.01 | 0.01 | 0.01 | 90 | 1011.3 |
| 20260506164336 | 79 | 128 | 0.0 | 0.9 | 0.01 | 0.01 | 0.01 | 89 | 1011.2 |
| 20260506163359 | 79 | 129 | 0.0 | 3.5 | 0.01 | 0.01 | 0.01 | 87 | 1011.1 |
| 20260506162324 | 80 | 123 | 0.9 | 3.5 | 0.00 | 0.00 | 0.00 | 86 | 1011.0 |
| 20260506161331 | 80 | 128 | 1.7 | 4.3 | 0.00 | 0.00 | 0.00 | 85 | 1010.9 |
| 20260506160334 | 80 | 130 | 1.7 | 6.1 | 0.00 | 0.00 | 0.00 | 86 | 1010.5 |
| 20260506155325 | 80 | 140 | 0.0 | 2.6 | 0.00 | 0.00 | 0.00 | 87 | 1010.5 |
| 20260506154333 | 80 | 130 | 0.0 | 1.7 | 0.00 | 0.00 | 0.00 | 87 | 1010.4 |
| 20260506153340 | 79 | 121 | 0.9 | 4.3 | 0.00 | 0.00 | 0.00 | 87 | 1010.4 |
| 20260506152327 | 79 | 142 | 0.0 | 3.5 | 0.00 | 0.00 | 0.00 | 87 | 1010.5 |
| 20260506151335 | 79 | 133 | 1.7 | 3.5 | 0.00 | 0.00 | 0.00 | 87 | 1010.5 |
| 20260506150358 | 79 | 141 | 0.9 | 4.3 | 0.00 | 0.00 | 0.00 | 87 | 1010.3 |
| 20260506145326 | 79 | 130 | 3.5 | 4.3 | 0.00 | 0.00 | 0.00 | 88 | 1010.1 |
| 20260506144337 | 79 | 129 | 1.7 | 3.5 | 0.00 | 0.00 | 0.00 | 90 | 1010.1 |
| 20260506143401 | 79 | 125 | 1.7 | 5.2 | 0.00 | 0.00 | 0.00 | 90 | 1009.8 |
| 20260506142328 | 78 | 124 | 1.7 | 5.2 | 0.00 | 0.00 | 0.00 | 91 | 1009.5 |
| 20260506141336 | 78 | 131 | 2.6 | 7.0 | 0.00 | 0.00 | 0.00 | 91 | 1009.4 |
| 20260506140340 | 78 | 123 | 1.7 | 5.2 | 0.00 | 0.00 | 0.00 | 92 | 1009.5 |
| 20260506135329 | 77 | 129 | 1.7 | 4.3 | 0.00 | 0.00 | 0.00 | 92 | 1009.6 |
| 20260506134337 | 77 | 111 | 2.6 | 6.1 | 0.00 | 0.00 | 0.00 | 93 | 1009.6 |
| 20260506133326 | 77 | 114 | 3.5 | 7.8 | 0.00 | 0.00 | 0.00 | 93 | 1009.6 |
| 20260506132353 | 77 | 126 | 2.6 | 6.1 | 0.00 | 0.00 | 0.00 | 94 | 1009.6 |
| 20260506131340 | 76 | 127 | 1.7 | 6.1 | 0.00 | 0.00 | 0.00 | 94 | 1009.7 |
| 20260506130323 | 76 | 127 | 1.7 | 3.5 | 0.00 | 0.00 | 0.00 | 94 | 1009.9 |
| 20260506125332 | 76 | 78 | 0.0 | 0.9 | 0.00 | 0.00 | 0.00 | 94 | 1009.8 |
| 20260506124340 | 75 | 117 | 0.0 | 0.0 | 0.00 | 0.00 | 0.00 | 94 | 1009.7 |
| 20260506123326 | 75 | 97 | 0.0 | 0.0 | 0.00 | 0.00 | 0.00 | 94 | 1009.6 |
| 20260506122339 | 75 | 101 | 0.0 | 0.0 | 0.00 | 0.00 | 0.00 | 94 | 1009.5 |
| 20260506121346 | 75 | 119 | 0.0 | 0.0 | 0.00 | 0.00 | 0.00 | 94 | 1009.5 |
| 20260506120329 | 75 | 119 | 0.0 | 1.7 | 0.00 | 0.00 | 0.00 | 94 | 1009.4 |
| 20260506115336 | 75 | 121 | 0.9 | 2.6 | 0.00 | 0.00 | 0.00 | 94 | 1009.2 |
| 20260506114324 | 75 | 121 | 0.0 | 1.7 | 0.00 | 0.00 | 0.00 | 94 | 1009.1 |
| 20260506113328 | 75 | 133 | 0.9 | 2.6 | 0.00 | 0.00 | 0.00 | 94 | 1009.0 |
| 20260506112336 | 75 | 141 | 0.9 | 4.3 | 0.00 | 0.00 | 0.00 | 94 | 1009.0 |
| 20260506111342 | 75 | 127 | 2.6 | 5.2 | 0.00 | 0.00 | 0.00 | 94 | 1008.8 |
| 20260506110329 | 75 | 144 | 0.9 | 3.5 | 0.00 | 0.00 | 0.00 | 94 | 1008.8 |
| 20260506105336 | 75 | 143 | 1.7 | 5.2 | 0.00 | 0.00 | 0.00 | 93 | 1008.6 |
| 20260506104342 | 75 | 134 | 1.7 | 6.1 | 0.00 | 0.00 | 0.00 | 93 | 1008.6 |
| 20260506103325 | 75 | 165 | 3.5 | 7.8 | 0.00 | 0.00 | 0.00 | 93 | 1008.4 |
| 20260506102334 | 75 | 134 | 2.6 | 6.1 | 0.00 | 0.00 | 0.00 | 93 | 1008.4 |